Flag Weather past 2 weeks in Melsungen, Hesse, Germany

Now
36 °F

Overcast.


Feels Like: 33 °F
Forecast: 29 / 35 °F
Wind: 3 mph from East

Location: Fritzlar

Current Time: Nov 28, 2014 at 9:57:04 PM

Latest Report: Nov 28, 2014 at 9:00 PM


Visibility: 5 mi

Pressure: 30.02 "Hg

Humidity: 84%

Dew point: 31 °F

Location of MelsungenLocation

Historic Weather in Melsungen — Graph

°F

Melsungen temperature yesterday

Maximum temperature yesterday: 42 °F (at 3:00 PM)
Minimum temperature yesterday: 31 °F (at 5:00 AM)
Average temperature yesterday: 37 °F

Past Weeks' High & Low Weather Summary

 TemperatureHumidityPressure
High53 °F (Nov 14, 1:00 PM)99% (Nov 25, 5:00 AM)30.40 "Hg (Nov 25, 5:00 AM)
Low29 °F (Nov 22, 8:00 AM)67% (Nov 24, 3:00 PM)29.50 "Hg (Nov 16, 5:00 AM)
Average42 °F90%30.02 "Hg
* Reported Nov 13 8:00 PM — Nov 28 8:00 PM, Melsungen, Weather by CustomWeather, © 2014

Note: Actual official high and low records may vary slightly from our data, if they occured in-between our weather recording intervals... More about our weather records

Advertising

Melsungen weather history for previous 24 hours

 ConditionsComfort  
Time TempWeatherWind HumidityBarometerVisibility
8:00 PM
Nov 28
36 °FOvercast.6 mph83%30.01 "Hg5 mi
7:00 PM36 °FOvercast.5 mph82%30.01 "Hg5 mi
6:00 PM36 °FOvercast.5 mph83%30.00 "Hg6 mi
5:00 PM36 °FOvercast.3 mph82%29.98 "Hg6 mi
4:00 PM37 °FOvercast.3 mph82%29.96 "Hg6 mi
3:00 PM37 °FOvercast.3 mph84%29.96 "Hg5 mi
2:00 PM37 °FFog.3 mph85%29.96 "Hg4 mi
1:00 PM37 °FFog.6 mph88%29.96 "Hg4 mi
12:00 PM37 °FFog.6 mph88%29.96 "Hg4 mi
11:00 AM38 °FFog.6 mph88%29.97 "Hg3 mi
10:00 AM38 °FFog.5 mph89%29.96 "Hg4 mi
9:00 AM38 °FFog.6 mph87%29.94 "Hg4 mi
8:00 AM35 °FFog.1 mph97%29.94 "Hg3 mi
7:00 AM33 °FFog.1 mph97%29.92 "Hg3 mi
6:00 AM31 °FFog.1 mph98%29.92 "Hg2 mi
5:00 AM32 °FFog.1 mph97%29.92 "Hg2 mi
4:00 AM33 °FFog.1 mph97%29.91 "Hg3 mi
3:00 AM34 °FFog.1 mph95%29.91 "Hg4 mi
2:00 AM35 °FPassing clouds.2 mph94%29.90 "Hg6 mi
1:00 AM37 °FPassing clouds.2 mph91%29.89 "Hg6 mi
12:00 AM37 °FOvercast.2 mph90%29.89 "Hg7 mi
11:00 PM
Nov 27
37 °FOvercast.3 mph89%29.89 "Hg7 mi
9:00 PM39 °FLight rain. Overcast.2 mph88%29.88 "Hg7 mi
Weather by CustomWeather, © 2014

See weather overviewHow to use our weather pages